[[{"header":{"parameterUnit":"m.s-1","parameterCategory":1,"la1":30.2991,"la2":30.254,"lo1":-89.0895,"lo2":-89.0444,"dy":0.0017,"dx":0.0017,"nx":28,"ny":28,"refTime":"2025-03-12T09:00:00:Z","depth":0,"parameterNumber":2,"parameterNumberName":"U-component_of_WINDS"},"data":[0,0,0,0,0,0,0,0,0,0,0,0,0,0,0,0,0,0,0,0,0,0,0,0,0,0,0,0,0,0,0,0,0,0,0,0,0,0,0,0,0,0,0,0,0,0,0,0,0,0,0,0,0,0,0,0,0,0,-0.7088,-0.7088,0,-0.7112,-0.7112,-0.7113,-0.7098,-0.7097,-0.7097,-0.7096,-0.7118,-0.7119,-0.712,0,0,0,0,0,0,0,0,0,0,0,0,0,-0.7024,-0.7025,-0.7088,-0.7088,-0.7088,-0.7112,-0.7112,-0.7113,-0.7098,-0.7097,-0.7096,-0.7096,-0.7117,-0.7119,-0.712,0,0,0,0,0,0,0,0,0,0,0,0,0,-0.705,-0.7026,-0.7088,-0.7084,-0.7084,-0.7112,-0.7112,-0.7113,-0.7098,-0.7097,-0.7096,-0.7095,-0.7117,-0.7119,-0.7121,-0.7153,0,0,-0.7126,-0.7127,0,0,0,0,0,0,0,0,-0.7049,-0.7052,-0.7084,-0.7084,-0.7084,-0.7101,-0.7098,-0.7126,-0.7098,-0.7093,-0.7096,-0.7095,-0.7113,-0.7115,-0.7122,-0.7154,-0.7155,-0.7126,-0.7127,-0.7128,-0.7129,0,0,0,0,0,0,0,-0.7047,-0.7051,-0.7097,-0.7085,-0.7085,-0.7079,-0.7082,-0.7103,-0.7108,-0.7093,-0.7092,-0.7095,-0.7113,-0.712,-0.7122,-0.7155,-0.7126,-0.7128,-0.7129,-0.713,-0.721,-0.7211,0,0,0,0,0,0,-0.7046,-0.705,-0.7097,-0.7098,-0.7064,-0.7081,-0.7084,-0.7097,-0.7108,-0.7109,-0.7096,-0.7095,-0.7117,-0.712,-0.7123,-0.7158,-0.7128,-0.713,-0.7131,-0.7209,-0.721,-0.7211,0,0,0,0,0,0,-0.7045,-0.705,-0.7096,-0.7074,-0.7079,-0.7084,-0.7098,-0.7098,-0.7105,-0.711,-0.7111,-0.7103,-0.7117,-0.712,-0.7145,-0.7159,-0.7131,-0.7132,-0.7208,-0.7209,-0.7211,-0.7231,0,0,0,0,0,0,-0.7043,-0.705,-0.7064,-0.7074,-0.708,-0.7119,-0.7099,-0.7099,-0.7109,-0.7107,-0.7117,-0.7118,-0.7116,-0.7142,-0.7146,-0.7161,-0.7134,-0.7206,-0.7208,-0.721,-0.7229,-0.7233,-0.7237,0,0,0,0,0,-0.7041,-0.7069,-0.7064,-0.707,-0.7098,-0.712,-0.7123,-0.7122,-0.711,-0.7122,-0.7125,-0.7117,-0.7157,-0.7145,-0.7149,-0.7165,-0.7205,-0.7208,-0.721,-0.7228,-0.7233,-0.7237,0,0,0,0,0,0,-0.706,-0.707,-0.7066,-0.7098,-0.7108,-0.7117,-0.7133,-0.7127,-0.714,-0.7138,-0.7134,-0.7137,-0.7161,-0.7166,-0.7152,-0.7194,-0.7179,-0.7182,-0.7191,-0.7195,-0.7199,-0.7197,-0.7135,0,0,0,0,0,-0.7068,-0.7086,-0.7094,-0.7122,-0.7127,-0.7129,-0.7139,-0.7136,-0.7146,-0.715,-0.7155,-0.7163,-0.7177,-0.7187,-0.72,-0.723,-0.723,-0.7243,-0.7246,-0.7249,-0.7252,-0.7264,-0.7269,-0.7219,-0.7219,-0.7219,0,0,-0.7085,-0.7093,-0.7105,-0.7126,-0.7133,-0.715,-0.7133,-0.7152,-0.7164,-0.7153,-0.7175,-0.7179,-0.7188,-0.7214,-0.7226,-0.7219,-0.7266,-0.7252,-0.7255,-0.7256,-0.7267,-0.7272,-0.7276,-0.722,-0.722,-0.722,0,0,-0.7124,-0.7133,-0.7156,-0.7163,-0.7174,-0.7175,-0.718,-0.7189,-0.7191,-0.7214,-0.7205,-0.7218,-0.7243,-0.7249,-0.7255,-0.7292,-0.7284,-0.7297,-0.7316,-0.7328,-0.7332,-0.7335,-0.7346,-0.735,-0.7299,-0.7299,-0.7299,0,-0.7144,-0.717,-0.7168,-0.7187,-0.7195,-0.7185,-0.7206,-0.7213,-0.7228,-0.7233,-0.7224,-0.7253,-0.7259,-0.7285,-0.7294,-0.73,-0.7304,-0.7295,-0.7332,-0.7335,-0.7338,-0.7348,-0.7353,-0.7301,-0.7301,-0.73,-0.73,0,-0.7191,-0.7209,-0.7226,-0.7239,-0.725,-0.727,-0.7269,-0.7279,-0.7275,-0.7276,-0.7297,-0.7303,-0.7316,-0.7322,-0.7319,-0.7347,-0.7341,-0.7332,-0.7317,-0.7344,-0.7353,-0.7358,-0.7302,-0.7302,-0.7302,-0.7301,0,0,-0.7245,-0.7255,-0.7261,-0.7265,-0.7275,-0.7288,-0.7306,-0.7319,-0.7326,-0.7336,-0.7349,-0.7369,-0.736,-0.7367,-0.7364,-0.7375,-0.74,-0.7364,-0.7364,-0.7369,-0.7427,-0.7433,-0.7438,-0.7395,-0.7396,-0.7397,-0.7426,0,-0.7282,-0.7315,-0.7312,-0.7342,-0.7356,-0.7346,-0.7361,-0.7367,-0.7368,-0.7379,-0.7379,-0.7392,-0.7381,-0.7384,-0.7395,-0.7395,-0.7412,-0.7393,-0.7405,-0.7406,-0.7402,-0.7443,-0.7449,-0.7477,-0.743,-0.743,-0.7431,0,-0.7331,-0.7341,-0.7373,-0.7377,-0.7383,-0.7397,-0.7406,-0.7418,-0.7423,-0.7423,-0.7429,-0.7423,-0.7439,-0.7423,-0.7443,-0.743,-0.7435,-0.7436,-0.7436,-0.7437,-0.7419,-0.7442,-0.7486,-0.7489,-0.7437,-0.7436,-0.7436,0,-0.7364,-0.7385,-0.7406,-0.741,-0.7417,-0.7426,-0.7429,-0.7434,-0.744,-0.7448,-0.7452,-0.7462,-0.7466,-0.7473,-0.7469,-0.7459,-0.7488,-0.7473,-0.7486,-0.7486,-0.7493,-0.7492,-0.7536,-0.7498,-0.7498,-0.7498,-0.7498,0,-0.7405,-0.7424,-0.742,-0.7432,-0.7452,-0.7447,-0.7466,-0.7468,-0.7471,-0.7482,-0.7474,-0.7484,-0.7479,-0.7488,-0.7485,-0.75,-0.7503,-0.7501,-0.75,-0.7501,-0.7501,-0.7503,-0.75,-0.7499,-0.7499,-0.7499,-0.7499,0,-0.7445,-0.7443,-0.7464,-0.7467,-0.7469,-0.7483,-0.7484,-0.7495,-0.7494,-0.7508,-0.751,-0.7509,-0.7518,-0.7515,-0.7526,-0.7524,-0.7542,-0.754,-0.754,-0.7539,-0.7551,-0.755,-0.7597,-0.7602,-0.7563,-0.7563,-0.7564,0,-0.7471,-0.7484,-0.7488,-0.7495,-0.7498,-0.751,-0.7516,-0.7511,-0.7517,-0.7523,-0.7532,-0.7541,-0.7548,-0.7564,-0.7563,-0.757,-0.7566,-0.7582,-0.7567,-0.7567,-0.7564,-0.7562,-0.7562,-0.7585,-0.7585,-0.7586,-0.7586,0,-0.7516,-0.7513,-0.7523,-0.7531,-0.7538,-0.7545,-0.755,-0.7556,-0.7551,-0.7558,-0.7568,-0.7573,-0.7583,-0.7592,-0.7598,-0.7599,-0.7591,-0.7591,-0.7594,-0.7594,-0.7594,-0.7592,-0.7547,-0.759,-0.7589,-0.7589,-0.7589,-0.7589,-0.7548,-0.7558,-0.7561,-0.7571,-0.7574,-0.7579,-0.7588,-0.7587,-0.7596,-0.7603,-0.76,-0.761,-0.7612,-0.762,-0.7622,-0.7629,-0.7622,-0.7627,-0.7628,-0.7629,-0.763,-0.7593,-0.763,-0.763,-0.763,-0.763,-0.763,0,-0.759,-0.7591,-0.76,-0.7607,-0.7614,-0.7606,-0.7611,-0.7617,-0.7626,-0.7629,-0.7636,-0.7645,-0.7652,-0.7651,-0.7657,-0.7663,-0.7659,-0.7664,-0.7663,-0.7663,-0.7636,-0.7632,-0.7667,-0.7667,-0.7667,-0.7667,-0.7667,-0.7667,-0.7613,-0.7629,-0.7626,-0.7643,-0.7644,-0.7654,-0.7657,-0.766,-0.7662,-0.7673,-0.7679,-0.7678,-0.7678,-0.7684,-0.7689,-0.7688,-0.769,-0.7696,-0.7694,-0.7669,-0.7665,-0.7661,-0.7657,-0.7697,-0.7697,-0.7719,-0.772,-0.772]},{"header":{"parameterUnit":"m.s-1","parameterCategory":1,"la1":30.2991,"la2":30.254,"lo1":-89.0895,"lo2":-89.0444,"dy":0.0017,"dx":0.0017,"nx":28,"ny":28,"refTime":"2025-03-12T09:00:00:Z","depth":0,"parameterNumber":3,"parameterNumberName":"V-component_of_WINDS"},"data":[0,0,0,0,0,0,0,0,0,0,0,0,0,0,0,0,0,0,0,0,0,0,0,0,0,0,0,0,0,0,0,0,0,0,0,0,0,0,0,0,0,0,0,0,0,0,0,0,0,0,0,0,0,0,0,0,0,0,3.6622,3.6623,0,3.6704,3.6705,3.6706,3.6743,3.6743,3.6743,3.6743,3.6825,3.6827,3.6829,0,0,0,0,0,0,0,0,0,0,0,0,0,3.6495,3.6497,3.6622,3.6623,3.6624,3.6704,3.6705,3.6706,3.6743,3.6743,3.6743,3.6743,3.6824,3.6826,3.6829,0,0,0,0,0,0,0,0,0,0,0,0,0,3.6561,3.6498,3.6621,3.6652,3.6656,3.6704,3.6705,3.6707,3.6743,3.6743,3.6743,3.6743,3.6823,3.6826,3.6829,3.6852,0,0,3.684,3.6841,0,0,0,0,0,0,0,0,3.6557,3.6565,3.6647,3.665,3.6654,3.6714,3.669,3.6755,3.6744,3.671,3.6743,3.6743,3.6787,3.6794,3.6809,3.6856,3.686,3.684,3.6842,3.6843,3.6844,0,0,0,0,0,0,0,3.6552,3.6562,3.6654,3.6648,3.6652,3.6661,3.667,3.6703,3.6748,3.6713,3.6716,3.6725,3.6789,3.6806,3.6812,3.6861,3.684,3.6843,3.6845,3.6846,3.6934,3.6934,0,0,0,0,0,0,3.6543,3.6558,3.6652,3.6657,3.6604,3.6664,3.6674,3.6694,3.6748,3.6756,3.6725,3.6727,3.68,3.6808,3.6814,3.6847,3.6843,3.6847,3.6849,3.6933,3.6934,3.6934,0,0,0,0,0,0,3.654,3.6551,3.6648,3.6608,3.6621,3.6666,3.6689,3.6696,3.6713,3.6757,3.6765,3.6734,3.6801,3.681,3.6844,3.685,3.6848,3.6851,3.6933,3.6933,3.6934,3.6911,0,0,0,0,0,0,3.6536,3.655,3.6559,3.6608,3.6623,3.6676,3.6689,3.6698,3.6719,3.6722,3.6768,3.6775,3.6801,3.6838,3.6847,3.6855,3.6854,3.6932,3.6933,3.6934,3.6911,3.691,3.691,0,0,0,0,0,3.6532,3.6548,3.6559,3.6571,3.6636,3.6677,3.6685,3.6716,3.6719,3.6729,3.6758,3.6774,3.6848,3.6842,3.6851,3.686,3.6932,3.6933,3.6934,3.6911,3.691,3.691,0,0,0,0,0,0,3.6497,3.6555,3.6568,3.6601,3.6634,3.6683,3.6696,3.6713,3.6745,3.6746,3.6781,3.6791,3.6822,3.6845,3.6836,3.6887,3.6892,3.6894,3.6871,3.6871,3.687,3.6864,3.6857,0,0,0,0,0,3.6493,3.6522,3.6571,3.6595,3.6611,3.6651,3.6669,3.669,3.6725,3.6739,3.677,3.6803,3.6834,3.6853,3.6884,3.6914,3.6926,3.6925,3.6925,3.6924,3.6926,3.6946,3.6947,3.6936,3.6936,3.6936,0,0,3.6485,3.6521,3.6536,3.6589,3.6617,3.6646,3.6662,3.6691,3.6713,3.6743,3.6778,3.6802,3.6841,3.6873,3.6889,3.6893,3.6932,3.6925,3.6924,3.6927,3.6947,3.6948,3.6949,3.6937,3.6937,3.6937,0,0,3.6487,3.6516,3.654,3.6569,3.6612,3.6638,3.6644,3.6691,3.6709,3.6745,3.6768,3.6795,3.6846,3.6874,3.6895,3.6909,3.6925,3.6918,3.6914,3.6933,3.6934,3.6935,3.6942,3.6944,3.692,3.692,3.692,0,3.6471,3.6517,3.655,3.658,3.6603,3.6633,3.6658,3.6684,3.6733,3.6749,3.6752,3.682,3.6848,3.6889,3.6893,3.6908,3.6916,3.6913,3.6932,3.6933,3.6934,3.6941,3.6943,3.6919,3.6919,3.6919,3.6919,0,3.6497,3.6528,3.6543,3.6593,3.6617,3.6644,3.6682,3.6702,3.6722,3.6748,3.6785,3.682,3.686,3.687,3.6888,3.6915,3.6916,3.6925,3.6931,3.6934,3.6941,3.6944,3.6917,3.6917,3.6918,3.6918,0,0,3.6477,3.6547,3.6552,3.6576,3.6627,3.6652,3.668,3.6721,3.6739,3.6772,3.6798,3.6842,3.6852,3.6876,3.6897,3.6914,3.6925,3.6921,3.6923,3.6922,3.6958,3.6952,3.6955,3.6936,3.6937,3.6937,3.6956,0,3.6486,3.6541,3.6573,3.6614,3.6644,3.6675,3.67,3.6734,3.6759,3.6788,3.6816,3.6848,3.6858,3.6872,3.689,3.692,3.6933,3.6919,3.6961,3.6962,3.6952,3.6958,3.6951,3.6967,3.6959,3.6959,3.6959,0,3.6504,3.654,3.6584,3.6634,3.6648,3.667,3.6711,3.6739,3.6778,3.6796,3.6823,3.6846,3.6878,3.688,3.6926,3.6915,3.6934,3.6952,3.6953,3.6959,3.6962,3.6966,3.6973,3.6975,3.6964,3.6963,3.6963,0,3.6487,3.6546,3.6582,3.6601,3.6659,3.6675,3.6699,3.6739,3.6762,3.6797,3.6813,3.6851,3.6871,3.69,3.6933,3.6931,3.6975,3.698,3.6992,3.6991,3.7,3.6999,3.7011,3.701,3.701,3.701,3.701,0,3.6495,3.6521,3.6575,3.6597,3.6628,3.6665,3.6695,3.6722,3.6757,3.6785,3.6812,3.6837,3.6878,3.6908,3.6933,3.6968,3.6976,3.6992,3.6999,3.6991,3.6989,3.7004,3.7004,3.701,3.701,3.701,3.701,0,3.6481,3.6518,3.6559,3.6612,3.6626,3.6647,3.6692,3.6715,3.6743,3.6777,3.6788,3.6831,3.6869,3.6904,3.6952,3.697,3.7005,3.7013,3.6992,3.6996,3.7006,3.7006,3.703,3.7036,3.7029,3.7029,3.7029,0,3.6484,3.6506,3.6562,3.6584,3.6609,3.6642,3.6667,3.6704,3.6728,3.6776,3.6793,3.6833,3.6867,3.6925,3.6961,3.6999,3.7009,3.7015,3.7015,3.7007,3.7011,3.701,3.7013,3.7014,3.7014,3.7014,3.7014,0,3.6485,3.6504,3.6539,3.6581,3.661,3.6645,3.668,3.6696,3.674,3.6766,3.6806,3.6832,3.6884,3.6923,3.6966,3.6991,3.7011,3.7014,3.7019,3.7011,3.7,3.7008,3.6992,3.7013,3.7013,3.7013,3.7014,3.7014,3.6481,3.6503,3.6547,3.6586,3.6617,3.665,3.6675,3.6707,3.6742,3.6788,3.6808,3.6848,3.6889,3.6949,3.6974,3.7006,3.7011,3.7017,3.7019,3.7021,3.702,3.6994,3.7014,3.7014,3.7014,3.7014,3.7014,0,3.6486,3.6517,3.6552,3.6602,3.6633,3.665,3.6691,3.6715,3.6751,3.6788,3.6822,3.6869,3.6908,3.6948,3.6989,3.7007,3.7017,3.7017,3.7017,3.7023,3.7013,3.7005,3.7009,3.7009,3.7009,3.7009,3.7009,3.7009,3.6492,3.6531,3.6555,3.6609,3.664,3.6681,3.6703,3.6734,3.6765,3.6816,3.685,3.6876,3.6915,3.696,3.6997,3.7007,3.7022,3.702,3.7033,3.7023,3.7023,3.7023,3.7016,3.7022,3.7022,3.7041,3.7041,3.7041]}]]